EW9931 Weather Reports


time (UTC)temp
C
wind
direction
speed
KPH
gust
KPH
rain 1hr
cm
rain 24hr
cm
rain mn
cm
humidity
%
barometer
mb
20260903131557 11 143 0.0 0.0 0.00 0.00 0.00 14 1005.7
20260903130052 11 143 0.0 0.0 0.00 0.00 0.00 11 1005.2
20260903124600 11 143 0.0 0.0 0.00 0.00 0.00 9 1004.8
20260903123044 11 143 0.0 0.0 0.00 0.00 0.00 7 1004.9
20260903121542 11 144 0.0 0.0 0.00 0.00 0.00 7 1004.9
20260903120040 11 144 0.0 0.0 0.00 0.00 0.00 7 1004.0
20260903114532 11 130 0.0 0.0 0.00 0.00 0.00 7 1004.0
20260903113026 11 130 0.0 0.0 0.00 0.00 0.00 6 1004.1
20260903111522 11 130 0.0 0.0 0.00 0.00 0.00 7 1004.3
20260903110017 11 130 0.0 0.0 0.00 0.00 0.00 8 1003.9
20260903104514 11 130 0.0 0.0 0.00 0.00 0.00 8 1004.1
20260903103009 11 130 0.0 0.0 0.00 0.00 0.00 8 1004.1
20260903101504 11 130 0.0 0.0 0.00 0.00 0.00 7 1004.1
20260903094600 11 130 0.0 0.0 0.00 0.00 0.00 7 1004.6
20260903093122 11 137 0.0 0.0 0.00 0.00 0.00 8 1004.6
20260903091553 11 138 0.0 0.0 0.00 0.00 0.00 8 1004.8
20260903090044 11 141 0.0 0.0 0.00 0.00 0.00 9 1005.2
20260903084539 11 141 0.0 0.0 0.00 0.00 0.00 10 1005.2
20260903083035 11 141 0.0 0.0 0.00 0.00 0.00 12 1004.7
20260903081536 11 141 0.0 0.0 0.00 0.00 0.00 11 1004.9
20260903080025 11 141 0.0 0.0 0.00 0.00 0.00 9 1004.9
20260903074525 11 141 0.0 0.0 0.00 0.00 0.00 10 1004.8
20260903073019 11 141 0.0 0.0 0.00 0.00 0.00 12 1005.1
20260903071517 11 141 0.0 0.0 0.00 0.00 0.00 13 1005.6
20260903070025 11 141 0.0 0.0 0.00 0.00 0.00 16 1005.9
20260903064515 11 137 0.0 0.0 0.00 0.00 0.00 25 1005.7
20260903063014 10 130 0.0 0.0 0.00 0.00 0.00 36 1005.4
20260903061515 10 130 0.0 0.0 0.00 0.00 0.00 24 1005.7
20260903060016 10 130 0.0 0.0 0.00 0.00 0.00 26 1006.2
20260903054514 11 130 0.0 0.0 0.00 0.00 0.00 43 1006.1
20260903053010 11 130 0.0 0.0 0.00 0.00 0.00 47 1005.9
20260903051510 11 130 0.0 0.0 0.00 0.00 0.00 32 1006.4
20260903050008 11 130 0.0 0.0 0.00 0.00 0.00 23 1007.0
20260903044509 11 128 0.0 0.0 0.00 0.00 0.00 24 1007.4
20260903043007 10 117 0.0 0.0 0.00 0.00 0.00 24 1007.5
20260903041517 11 117 0.0 0.0 0.00 0.00 0.00 27 1007.3
20260903040009 11 117 0.0 0.0 0.00 0.00 0.00 30 1007.1
20260903034513 12 117 0.0 0.0 0.00 0.00 0.00 36 1006.6
20260903033005 12 117 0.0 0.0 0.00 0.00 0.00 27 1006.3
20260903031505 12 202 0.0 0.0 0.00 0.00 0.00 27 1006.3
20260903030005 12 189 0.0 0.0 0.00 0.00 0.00 27 1006.7
20260903024503 12 160 0.0 0.0 0.00 0.00 0.00 27 1006.7
20260903023011 13 188 0.0 0.0 0.00 0.00 0.00 31 1006.6
20260903021505 13 182 0.0 0.0 0.00 0.00 0.00 27 1007.0
20260903020002 13 191 1.6 0.0 0.00 0.00 0.00 28 1007.7
20260903014504 14 195 1.6 0.0 0.00 0.00 0.00 29 1007.1
20260903013001 14 140 0.0 0.0 0.00 0.00 0.00 28 1007.2
20260903011600 15 196 1.6 0.0 0.00 0.00 0.00 27 1006.7
20260903010059 15 143 3.2 0.0 0.00 0.00 0.00 24 1006.8
20260903004602 16 208 1.6 0.0 0.00 0.00 0.00 23 1006.3
20260903003112 16 217 4.8 0.0 0.00 0.00 0.00 23 1006.3
20260903001557 17 284 3.2 0.0 0.00 0.00 0.00 20 1005.7
20260903000105 17 239 4.8 0.0 0.00 0.00 0.00 23 1005.8
20260902234555 17 188 4.8 0.0 0.00 0.00 0.00 21 1006.0
20260902233054 18 289 3.2 0.0 0.00 0.00 0.00 18 1005.8
20260902231554 18 258 3.2 0.0 0.00 0.00 0.00 15 1005.9
20260902224608 18 145 1.6 0.0 0.00 0.00 0.00 14 1006.2
20260902223108 18 193 3.2 0.0 0.00 0.00 0.00 16 1006.3
20260902221554 18 164 1.6 0.0 0.00 0.00 0.00 13 1006.4
20260902220049 18 144 3.2 0.0 0.00 0.00 0.00 13 1006.4
20260902214614 19 174 3.2 0.0 0.00 0.00 0.00 13 1006.4
20260902213048 20 206 1.6 0.0 0.00 0.00 0.00 15 1006.4
20260902211551 19 186 1.6 0.0 0.00 0.00 0.00 15 1006.9
20260902210048 19 126 1.6 0.0 0.00 0.00 0.00 15 1006.9
20260902204545 19 209 3.2 0.0 0.00 0.00 0.00 14 1006.4
20260902203043 19 212 1.6 0.0 0.00 0.00 0.00 12 1006.5
20260902201550 18 116 1.6 0.0 0.00 0.00 0.00 12 1007.1
20260902200040 18 114 0.0 0.0 0.00 0.00 0.00 14 1006.9
20260902194543 18 209 1.6 0.0 0.00 0.00 0.00 14 1007.1
20260902193033 18 206 3.2 0.0 0.00 0.00 0.00 13 1007.1
20260902191529 18 219 1.6 0.0 0.00 0.00 0.00 12 1007.2
20260902190024 17 128 0.0 0.0 0.00 0.00 0.00 12 1007.6
20260902184520 17 152 0.0 0.0 0.00 0.00 0.00 13 1008.1
20260902183018 16 213 0.0 0.0 0.00 0.00 0.00 13 1008.7
20260902181516 16 186 0.0 0.0 0.00 0.00 0.00 13 1008.6
20260902180014 16 141 1.6 0.0 0.00 0.00 0.00 13 1008.5
20260902174521 16 128 1.6 0.0 0.00 0.00 0.00 13 1008.2
20260902173011 15 131 1.6 0.0 0.00 0.00 0.00 13 1008.7
20260902171510 15 124 0.0 0.0 0.00 0.00 0.00 15 1008.6
20260902170007 14 151 0.0 0.0 0.00 0.00 0.00 14 1008.5
20260902164513 14 131 0.0 0.0 0.00 0.00 0.00 14 1008.5
20260902163007 13 130 0.0 0.0 0.00 0.00 0.00 15 1008.4
20260902161511 13 147 0.0 0.0 0.00 0.00 0.00 15 1008.6
20260902160001 13 199 1.6 0.0 0.00 0.00 0.00 15 1008.5
20260902154605 13 133 1.6 0.0 0.00 0.00 0.00 15 1008.3
20260902153058 12 131 3.2 0.0 0.00 0.00 0.00 15 1008.8
20260902151559 12 128 4.8 0.0 0.00 0.00 0.00 16 1008.7
20260902150055 11 168 1.6 0.0 0.00 0.00 0.00 17 1008.8
20260902144558 11 141 1.6 0.0 0.00 0.00 0.00 17 1008.7
20260902143051 11 141 3.2 0.0 0.00 0.00 0.00 17 1008.6
20260902141550 11 181 3.2 0.0 0.00 0.00 0.00 18 1008.7
20260902140049 11 208 1.6 0.0 0.00 0.00 0.00 20 1008.0
20260902134548 10 140 1.6 0.0 0.00 0.00 0.00 22 1008.0
20260902133056 10 165 3.2 0.0 0.00 0.00 0.00 22 1007.9